Weather in Amiens

France     49°53′19″N   2°17′23″E
temp.,
°C
wind,
m/s
gust,
m/s
humid.,
%
clouds,
%
prec.,
mm/h
press.,
hPa
HPBL,
m
28 july, wed
wed2823:00+15ssw379560 0.7 1011170
02:00+13sw4109599 0.7 1011248
05:00+12sw411950 0.0 1010325
08:00+13sw5119498 0.0 1011553
11:00+16sw71081100 0.0 1012881
14:00+19sw7106942 0.2 10121429
17:00+20wsw7116433 1.1 10111549
20:00+17wsw6127085 1.9 10121076
29 july, thu
thu2923:00+14wsw614731 0.0 1013609
02:00+13wsw513816 0.0 1013470
05:00+12sw512898 0.0 1013458
08:00+13wsw511895 0.0 1013527
11:00+17wsw686651 0.0 10141352
14:00+18wsw586592 0.3 10131385
17:00+19wnw576421 0.1 10131117
20:00+18nw46746 0.1 1012411
30 july, fri
fri3023:00+13se00875 0.0 101210
02:00+13se3589100 0.0 101080
05:00+14s3985100 0.0 1008211
08:00+14ssw51288100 0.6 1007461
11:00+16sw811710 0.3 1008967
14:00+19wsw11166459 0.4 10081850
17:00+18w10166958 0.8 10081707
20:00+16w713765 0.9 10101035
31 july, sat
sat3123:00+14w613875 0.0 1011536
02:00+12wsw512945 0.0 1011339
05:00+12wsw5119728 0.0 1011305
08:00+14wsw599065 0.0 1012494
11:00+18wsw677255 0.1 10121091
14:00+19w676865 1.3 10121271
17:00+18w6773100 1.2 1011962
20:00+16wsw468295 1.4 1011588
1 august, sun
sun123:00+14sw378997 0.1 1011285
02:00+14sw4988100 0.3 1010409
05:00+12sw41094100 0.1 1010311
08:00+14sw51093100 0.3 1009479
11:00+18wsw677549 0.9 1010992
14:00+18wnw687555 4.3 10101119
17:00+19wnw686113 0.3 10121409
20:00+17wnw46720 0.3 1012523